Location: Aetna Mine
(37.6183°N, 107.6045°W)
Time: 00:05:26
(UTC+00:00)

SL-8 R/B - Pass Details

Date: 18 September 2020
Orbit: 656 x 667 km, 48.4° (Epoch: 27 October)

Event Time Altitude Azimuth Distance (km) Brightness Sun altitude
Exits shadow 12:04:08 - 308° (NW) 2,619 6.4 -10.9°
Reaches altitude 10° 12:05:36 10° 311° (NW) 2,066 5.9 -10.6°
Maximum altitude 12:10:14 50° 28° (NNE) 832 4.5 -9.7°
Drops below altitude 10° 12:14:52 10° 104° (ESE) 2,061 7.5 -8.8°
Sets 12:17:16 0° 109° (ESE) 2,972 8.3 -8.3°
